Regional Weather Roundup
Issued by NWS

Home | Current Version | Previous Version | Graphics & Text | Print | Product List | Glossary On
Versions: 1 2 3 4 5 6 7 8 9 10 11 12 13 14 15 16 17 18 19 20 21 22 23 24 25 26 27 28 29 30 31 32 33 34 35 36 37 38 39 40 41 42 43 44 45 46 47 48 49 50
000
ASUS43 KIND 241209
RWRIN

WEATHER ROUNDUP FOR INDIANA
NATIONAL WEATHER SERVICE INDIANAPOLIS IN
800 AM EDT THU JUL 24 2014

NOTE: "FAIR" INDICATES FEW OR NO CLOUDS BELOW 12,000 FEET WITH NO
SIGNIFICANT WEATHER AND/OR OBSTRUCTIONS TO VISIBILITY.

* - STATION DOES NOT REPORT WEATHER SUCH AS PRECIPITATION OR FOG.

+ - STATION NOT QUALITY CONTROLLED BY THE NATIONAL WEATHER SERVICE.
    USE DATA WITH CAUTION...ESPECIALLY DEWPOINT AND RELATIVE
    HUMIDITY OBSERVATIONS.

INZ001>003-010>013-019-020-241300-
NORTHWEST INDIANA

CITY           SKY/WX    TMP DP  RH WIND       PRES   REMARKS
GARY /AIRPORT/ MOSUNNY   66  55  68 NE14      30.15R
KNOX *+        MOSUNNY   55  53  94 N6        30.13S
LA PORTE +     MOSUNNY   58  54  87 NE6       30.15R
6HR MIN TEMP:  56; 6HR MAX TEMP:  58;

MICHIGAN CITY+ MOSUNNY   52  52 100 CALM      30.15S
MONTICELLO +   SUNNY     58  56  94 CALM      30.12R
RENSSELAER +   SUNNY     55  55 100 N6        30.14R
VALPARAISO     MOSUNNY   58  54  86 CALM      30.15R
6HR MIN TEMP:  55; 6HR MAX TEMP:  59;


$$

LMZ046-743>745-241300-
SOUTHERN LAKE MICHIGAN

STATION/POSITION TIME  TEMP WIND        PRES
                       AIR  DIR/SP/G
                 (UTC) (F)  (DEG/KT/KT) (MB)
MICHIGAN CITY    1200   62   30/ 10/ 11   N/A

$$

INZ004-005-014>016-021>024-241300-
NORTH CENTRAL INDIANA

CITY           SKY/WX    TMP DP  RH WIND       PRES   REMARKS
ELKHART        PTSUNNY   59  55  88 CALM      30.15R
GOSHEN         PTSUNNY   61  57  87 N6        30.14R
6HR MIN TEMP:  58; 6HR MAX TEMP:  61;

LOGANSPORT +   PTSUNNY   59  55  88 N5        30.12R
PERU/GRISSOM   PTSUNNY   58  58 100 NE7       30.11R
6HR MIN TEMP:  55; 6HR MAX TEMP:  59;

ROCHESTER +    PTSUNNY   59  57  94 NE5       30.13R
SOUTH BEND     MOSUNNY   59  54  83 N7        30.16R
6HR MIN TEMP:  54; 6HR MAX TEMP:  59;

WARSAW +       PTSUNNY   59  55  88 NE5       30.13R

$$

INZ006>009-017-018-025>027-241300-
NORTHEAST INDIANA

CITY           SKY/WX    TMP DP  RH WIND       PRES   REMARKS
ANGOLA *+      CLOUDY    59  54  82 N3        30.14R
AUBURN +       CLOUDY    61  50  67 NE7       30.13R
FORT WAYNE     PTSUNNY   62  52  69 NE8       30.12R
6HR MIN TEMP:  61; 6HR MAX TEMP:  64;

HUNTINGTON +   PTSUNNY   61  58  88 CALM      30.12R
6HR MIN TEMP:  58; 6HR MAX TEMP:  62;


$$

INZ028-029-035-036-043>045-051>053-241300-
WEST CENTRAL INDIANA

CITY           SKY/WX    TMP DP  RH WIND       PRES   REMARKS
GREENCASTLE +  SUNNY     55  54  94 N6        30.09S
LAFAYETTE      CLOUDY    58  56  93 N3        30.12R
6HR MIN TEMP:  54; 6HR MAX TEMP:  58;

TERRE HAUTE    PTSUNNY   58  54  86 N6        30.09R
6HR MIN TEMP:  54; 6HR MAX TEMP:  59;


$$

INZ030>032-037>040-046>048-054>057-064-065-241300-
CENTRAL INDIANA

CITY           SKY/WX    TMP DP  RH WIND       PRES   REMARKS
CP ATTERBURY + SUNNY     61  59  94 N6        30.08R
COLUMBUS       SUNNY     59  59 100 N5        30.07R
INDIANAPOLIS   MOSUNNY   61  57  87 NE9       30.08R
6HR MIN TEMP:  58; 6HR MAX TEMP:  62;

-EAGLE CREEK   SUNNY     61  56  83 VRB5      30.08R
6HR MIN TEMP:  57; 6HR MAX TEMP:  61;

KOKOMO *+      MOSUNNY   59  57  94 N5        30.11R
MARION +       PTSUNNY   60  59  97 NE8       30.11R
MT COMFORT *+  SUNNY     59 N/A N/A N3        30.09R
SHELBYVILLE    SUNNY     62  58  86 N6        30.07R
6HR MIN TEMP:  60; 6HR MAX TEMP:  65;

ZIONSVILLE +   SUNNY     58  55  90 N5        30.11R FOG
6HR MIN TEMP:  55; 6HR MAX TEMP:  58;


$$

INZ033-034-041-042-049-050-058-059-241300-
EAST CENTRAL INDIANA

CITY           SKY/WX    TMP DP  RH WIND       PRES   REMARKS
MUNCIE         MOSUNNY   62  58  86 NE9       30.10R
6HR MIN TEMP:  57; 6HR MAX TEMP:  62;


$$

INZ060-061-067>069-081>083-085>088-241300-
SOUTHWEST INDIANA

CITY           SKY/WX    TMP DP  RH WIND       PRES   REMARKS
EVANSVILLE     PTSUNNY   60  53  77 N7        30.05R
6HR MIN TEMP:  60; 6HR MAX TEMP:  68;

HUNTINGBURG *+ MOSUNNY   63  57  82 NE7       30.05R
6HR MIN TEMP:  61; 6HR MAX TEMP:  66;

WASHINGTON +   SUNNY     59  57  96 N5        30.05R
6HR MIN TEMP:  56; 6HR MAX TEMP:  59;


$$

INZ062-063-066-070>080-084-089>092-241300-
SOUTH CENTRAL AND SOUTHEAST INDIANA

CITY           SKY/WX    TMP DP  RH WIND       PRES   REMARKS
BEDFORD +      MOSUNNY   63  57  82 N7        30.06R
BLOOMINGTON    SUNNY     61  57  87 N8        30.07R
6HR MIN TEMP:  59; 6HR MAX TEMP:  61;

NORTH VERNON + SUNNY     63  63 100 NE6       30.06R
SEYMOUR +      SUNNY     61  48  63 N7        30.05

$$



USA.gov is the U.S. government's official web portal to all federal, state and local government web resources and services.